Regional Weather Roundup
Issued by NWS

Home | Current Version | Previous Version | Text Only | Print | Product List | Glossary On
Versions: 1 2 3 4 5 6 7 8 9 10 11 12 13 14 15 16 17 18 19 20 21 22 23 24 25 26 27 28 29 30 31 32 33 34 35 36 37 38 39 40 41 42 43 44 45 46 47 48 49 50
000
ASUS45 KSLC 180210
RWRUT

UTAH REGIONAL WEATHER ROUNDUP
NATIONAL WEATHER SERVICE SALT LAKE CITY UT
700 PM MST FRI NOV 17 2017

UTZ001>011-023>025-180300-

NORTHERN UTAH

CITY           SKY/WX    TMP DP  RH WIND       PRES   REMARKS
BRIGHAM CITY   MOCLDY    37  21  53 N8        30.19R WCI  31
HILL AFB       PTCLDY    34  22  62 N13       30.16R WCI  25
LOGAN          PTCLDY    36  21  54 NW18      30.14R WCI  26
OGDEN          MOCLDY    36  23  59 N13       30.16R WCI  27
SALT LAKE CITY PTCLDY    39  27  62 NW17G29   30.15R WCI  30
TOOELE VALLEY  PTCLDY    34  27  75 NW10      30.20R WCI  26
WENDOVER       CLEAR     37  18  46 NW13      30.24R WCI  29
HEBER CITY     CLOUDY    32  27  80 SW3       30.09R
WEST JORDAN    PTCLDY    36  25  66 W20G31    30.16R WCI  25

$$

UTZ011>015-024>027-180300-

CENTRAL/NORTHEAST UTAH

CITY           SKY/WX    TMP DP  RH WIND       PRES   REMARKS
PROVO AIRPORT  PTCLDY    37  23  56 NW22G28   30.17R WCI  26
MOAB/CANYONLAN CLOUDY    47  18  31 NW31G43   29.96R
DELTA          PTCLDY    34  25  69 NW9       30.21R WCI  26
PRICE          MOCLDY    33  22  63 NW16G37   30.03R WCI  23
RICHFIELD      CLOUDY    32  32 100 CALM      30.22R FOG
ROOSEVELT      CLOUDY    36  21  55 W16       30.02R WCI  26
VERNAL         CLOUDY    39  11  31 N15G21    29.97R WCI  31

$$

UTZ013>016-019>022-027-180300-

SOUTHERN UTAH

CITY           SKY/WX    TMP DP  RH WIND       PRES   REMARKS
BRYCE CANYON   CLOUDY    30  28  92 NW22G30   30.08R WCI  17
CEDAR CITY     CLOUDY    37  32  82 N13G25    30.16R WCI  29
MILFORD        MOCLDY    37  29  72 N20       30.18R WCI  27
ST GEORGE      CLOUDY    56  34  43 NE16G28   30.02R
HANKSVILLE     CLOUDY    45  23  42 NW20G29   30.07R
KANAB          CLOUDY    45  41  87 NW16G26   30.08R
BLANDING         N/A     55  29  37 W16G28    29.93R

$$

REGIONAL REPORTS     COLORADO/ARIZONA

CITY           SKY/WX    TMP DP  RH WIND       PRES   REMARKS
CRAIG, CO      FLURRIES  32  26  78 W12       29.99R WCI  23
GRAND JUNCTION LGT RAIN  43  35  73 W21G30    29.92R
RIFLE, CO      FLURRIES  36  32  85 NW25G32   29.94R WCI  24
MONTROSE, CO   LGT RAIN  41  39  93 NW21G37   29.85R
CORTEZ, CO     LGT RAIN  54  37  52 SW23G36   29.88R
COLORADO CITY    N/A     46  41  81 NW17G24   30.05R
PAGE, AZ       MOCLDY    64  33  31 W15G26    29.89R
GRAND CANYON   CLOUDY    48  35  60 SW12G21   30.09R
KINGMAN, AZ    MOCLDY    63  38  39 S9        30.03R
FLAGSTAFF, AZ  MOCLDY    42  35  76 CALM      30.12R

$$

REGIONAL REPORTS    NEVADA/IDAHO/WYOMING

CITY           SKY/WX    TMP DP  RH WIND       PRES   REMARKS
LAS VEGAS, NV  PTCLDY    70  29  21 NW22G36   29.97R
ELY, NY          N/A     26  20  77 NW7       30.22R WCI  18
ELKO, NV       CLEAR     29  22  75 N5        30.25R WCI  24
POCATELLO, ID  CLEAR     34  24  67 W17       30.12R WCI  23
BURLEY, ID     CLEAR     34  24  67 W15G21    30.18R WCI  24
FORT BRIDGER,    N/A     22  19  88 W17       30.06R WCI   8
EVANSTON, WY   CLEAR     22  15  75 W22       30.05R WCI   6
ROCK SPRINGS,  CLOUDY    24  20  84 W25G35    29.96R WCI   8

$$



USA.gov is the U.S. government's official web portal to all federal, state and local government web resources and services.